2019-12-21T14:15:04Z,13.18,14,61,boot
2019-12-21T15:15:04Z,13.23,10,68,
2019-12-21T16:15:04Z,13.27,8,70,
2019-12-21T17:15:04Z,13.38,7,69,
2019-12-21T18:15:04Z,13.56,8,68,
2019-12-21T19:15:04Z,13.47,7,68,
2019-12-21T20:15:04Z,13.51,7,68,
2019-12-21T21:15:04Z,13.56,7,67,
2019-12-21T22:15:04Z,13.66,6,68,
2019-12-21T23:15:04Z,13.46,6,67,
2019-12-22T00:15:04Z,13.40,6,67,
2019-12-22T01:15:04Z,13.37,6,67,
2019-12-22T02:15:04Z,13.35,6,67,
2019-12-22T03:15:04Z,13.34,7,66,
2019-12-22T04:15:04Z,13.32,7,66,
2019-12-22T05:15:04Z,13.33,7,65,
2019-12-22T05:56:00Z,13.5,9,,act
2019-12-22T05:56:30Z,13.5,9,,act
2019-12-22T05:57:00Z,13.5,9,,act
2019-12-22T05:57:30Z,13.5,9,,act
2019-12-22T05:58:00Z,13.6,10,,act
2019-12-22T05:58:30Z,13.6,10,,act
2019-12-22T05:59:00Z,13.5,10,,act
2019-12-22T05:59:30Z,13.5,10,,act
2019-12-22T06:00:00Z,13.5,10,,act
2019-12-22T06:00:30Z,13.5,10,,act
2019-12-22T06:15:04Z,13.59,8,65,
2019-12-22T07:15:04Z,14.46,8,65,
2019-12-22T08:15:04Z,13.76,8,65,
2019-12-22T09:15:04Z,13.52,8,65,
2019-12-22T10:15:04Z,13.45,9,65,
2019-12-22T11:15:04Z,13.41,10,62,
2019-12-22T12:15:04Z,13.38,10,64,
2019-12-22T13:15:04Z,13.35,10,64,
2019-12-22T14:15:04Z,13.34,9,65,
2019-12-22T15:15:04Z,13.49,8,67,
2019-12-22T16:15:04Z,14.06,8,67,
2019-12-22T17:15:04Z,13.71,8,67,
2019-12-22T18:15:04Z,13.60,8,67,
2019-12-22T19:15:04Z,13.53,7,68,
2019-12-22T20:15:04Z,13.48,7,69,
2019-12-22T21:15:04Z,13.40,6,69,
2019-12-22T22:15:04Z,13.38,7,69,
2019-12-22T23:15:04Z,13.36,7,69,
2019-12-23T00:15:04Z,13.35,7,69,
2019-12-23T01:15:04Z,13.34,8,69,
2019-12-23T02:15:04Z,13.33,7,70,
2019-12-23T03:15:04Z,13.31,8,69,
2019-12-23T04:15:04Z,13.31,8,70,
2019-12-23T05:15:04Z,13.31,7,71,
2019-12-23T05:47:00Z,13.5,8,,act
2019-12-23T05:47:30Z,13.5,9,,act
2019-12-23T05:48:30Z,13.5,9,,act
2019-12-23T05:49:00Z,13.5,9,,act
2019-12-23T05:49:30Z,13.4,9,,act
2019-12-23T05:50:00Z,13.4,9,,act
2019-12-23T05:50:30Z,13.4,9,,act
2019-12-23T05:51:00Z,13.4,9,,act
2019-12-23T05:51:31Z,13.4,9,,act
2019-12-23T06:15:04Z,13.70,7,71,
2019-12-23T07:15:04Z,13.86,6,71,
2019-12-23T08:15:04Z,13.67,7,70,
2019-12-23T09:15:04Z,13.50,8,67,
2019-12-23T10:15:04Z,13.46,8,68,
2019-12-23T11:15:04Z,13.42,9,68,
2019-12-23T12:15:04Z,13.39,9,68,
2019-12-23T13:15:04Z,13.38,9,68,
2019-12-23T14:15:04Z,13.36,8,70,
2019-12-23T15:15:04Z,13.43,7,70,
2019-12-23T16:15:04Z,13.95,7,70,
2019-12-23T17:15:04Z,13.71,7,70,
2019-12-23T18:15:04Z,13.61,7,70,
2019-12-23T19:15:04Z,13.54,6,70,
2019-12-23T20:15:04Z,13.49,8,68,
2019-12-23T21:15:04Z,13.38,7,69,
2019-12-23T22:15:04Z,13.39,7,69,
2019-12-23T23:15:04Z,13.37,6,70,
2019-12-24T00:15:04Z,13.35,5,72,
2019-12-24T01:15:04Z,13.34,4,72,
2019-12-24T02:15:04Z,13.33,4,71,
2019-12-24T03:15:04Z,13.25,6,69,
2019-12-24T04:15:04Z,13.31,7,68,
2019-12-24T05:15:04Z,13.31,6,69,
2019-12-24T06:15:04Z,13.58,6,69,
2019-12-24T07:15:04Z,13.85,7,68,
2019-12-24T08:15:04Z,13.67,7,69,
2019-12-24T09:15:04Z,13.58,7,69,
2019-12-24T10:15:04Z,13.46,8,66,
2019-12-24T11:15:04Z,13.43,9,66,
2019-12-24T12:15:04Z,13.40,10,65,
2019-12-24T13:15:04Z,13.38,10,66,
2019-12-24T14:15:04Z,13.36,9,67,
2019-12-24T15:15:04Z,13.48,9,67,
2019-12-24T16:15:04Z,13.96,9,67,
2019-12-24T17:15:04Z,13.72,9,69,
2019-12-24T18:15:04Z,13.62,9,68,
2019-12-24T19:15:04Z,13.55,9,68,
2019-12-24T20:15:04Z,13.50,9,67,
2019-12-24T21:15:04Z,13.46,9,68,
2019-12-24T22:15:04Z,13.38,9,67,
2019-12-24T23:15:04Z,13.37,9,68,
2019-12-25T00:15:04Z,13.36,8,69,
2019-12-25T01:15:04Z,13.34,8,69,
2019-12-25T02:15:04Z,13.33,8,70,
2019-12-25T03:15:04Z,13.33,7,70,
2019-12-25T04:15:04Z,13.25,7,70,
2019-12-25T05:15:04Z,13.31,7,70,
2019-12-25T06:15:04Z,13.57,7,70,
2019-12-25T07:15:04Z,13.85,8,69,
2019-12-25T08:15:04Z,13.68,7,70,
2019-12-25T09:15:04Z,13.58,7,71,
2019-12-25T10:15:04Z,13.52,8,70,
2019-12-25T11:15:04Z,13.43,9,71,
2019-12-25T12:15:04Z,13.40,10,70,
2019-12-25T13:15:04Z,13.38,9,72,
2019-12-25T14:15:04Z,13.36,8,73,
2019-12-25T15:15:04Z,13.48,8,72,
2019-12-25T16:15:04Z,13.89,8,72,
2019-12-25T17:15:04Z,13.59,8,71,
2019-12-25T17:30:30Z,13.6,8,,act
2019-12-25T17:31:00Z,13.5,9,,act
2019-12-25T17:31:30Z,13.5,9,,act
2019-12-25T17:32:00Z,13.5,9,,act
2019-12-25T17:32:30Z,13.5,9,,act
2019-12-25T17:33:00Z,13.5,9,,act
2019-12-25T17:33:30Z,13.5,9,,act
2019-12-25T17:34:00Z,13.5,9,,act
2019-12-25T17:34:30Z,13.5,10,,act
2019-12-25T17:35:00Z,13.5,10,,act
2019-12-25T18:15:04Z,13.52,7,73,
2019-12-25T19:15:04Z,13.47,5,75,
2019-12-25T20:15:04Z,13.43,3,76,
2019-12-25T21:15:04Z,13.40,2,76,
2019-12-25T22:15:04Z,13.38,2,77,
2019-12-25T23:15:04Z,13.32,1,75,
2019-12-26T00:15:04Z,13.32,1,77,
2019-12-26T01:15:04Z,13.32,2,75,
2019-12-26T02:15:04Z,13.31,3,74,
2019-12-26T03:15:04Z,13.31,3,74,
2019-12-26T04:15:04Z,13.31,2,75,
2019-12-26T05:15:04Z,13.29,1,76,
2019-12-26T06:15:04Z,13.62,0,77,
2019-12-26T07:15:04Z,13.80,0,76,
2019-12-26T08:15:04Z,13.62,0,76,
2019-12-26T09:15:04Z,13.54,1,76,
2019-12-26T10:15:04Z,13.48,3,74,
2019-12-26T11:15:04Z,13.40,5,71,
2019-12-26T12:15:04Z,13.38,5,73,
2019-12-26T13:15:04Z,13.36,5,73,
2019-12-26T14:15:04Z,13.35,5,74,
2019-12-26T15:15:04Z,13.58,5,74,
2019-12-26T16:15:04Z,13.88,5,74,
2019-12-26T17:15:04Z,13.57,5,73,
2019-12-26T17:22:00Z,13.5,6,,act
2019-12-26T17:22:30Z,13.5,6,,act
2019-12-26T17:23:00Z,13.5,6,,act
2019-12-26T17:23:30Z,13.5,6,,act
2019-12-26T17:24:00Z,13.5,6,,act
2019-12-26T17:24:30Z,13.5,6,,act
2019-12-26T17:25:01Z,13.5,7,,act
2019-12-26T17:25:30Z,13.5,7,,act
2019-12-26T17:26:00Z,13.5,7,,act
2019-12-26T17:26:30Z,13.5,7,,act
2019-12-26T18:15:04Z,13.50,5,75,
2019-12-26T19:15:04Z,13.46,5,74,
2019-12-26T20:15:04Z,13.43,5,74,
2019-12-26T21:15:04Z,13.40,5,74,
2019-12-26T22:15:04Z,13.38,6,75,
2019-12-26T23:15:04Z,13.31,6,75,
2019-12-27T00:15:04Z,13.33,6,76,
2019-12-27T01:15:04Z,13.32,6,76,
2019-12-27T02:15:04Z,13.32,6,76,
2019-12-27T03:15:04Z,13.31,6,76,
2019-12-27T04:15:04Z,13.30,6,77,
2019-12-27T05:15:04Z,13.23,6,77,
2019-12-27T06:15:04Z,13.53,6,77,
2019-12-27T07:15:04Z,13.89,5,77,
2019-12-27T08:15:04Z,13.68,3,79,
2019-12-27T09:15:04Z,13.58,2,80,
2019-12-27T10:15:04Z,13.52,3,79,
2019-12-27T11:15:04Z,13.47,4,82,
2019-12-27T12:15:04Z,13.40,5,80,
2019-12-27T13:15:04Z,13.38,6,80,
2019-12-27T14:15:04Z,13.36,5,81,
2019-12-27T15:15:04Z,13.65,3,80,
2019-12-27T16:15:04Z,13.83,2,79,
2019-12-27T17:15:04Z,13.66,0,79,
2019-12-27T18:15:04Z,13.49,0,79,
2019-12-27T19:15:04Z,13.45,-1,82,
2019-12-27T20:15:04Z,13.42,-1,81,
2019-12-27T21:15:04Z,13.39,-2,80,
2019-12-27T22:15:04Z,13.37,-3,80,
2019-12-27T23:15:04Z,13.28,-2,82,
2019-12-28T00:15:04Z,13.32,-1,80,
2019-12-28T01:15:04Z,13.31,-1,81,
2019-12-28T02:15:04Z,13.30,-2,80,
2019-12-28T03:15:04Z,13.30,-3,80,
2019-12-28T04:15:04Z,13.29,-3,81,
2019-12-28T05:15:04Z,13.27,-3,80,
2019-12-28T05:55:00Z,13.5,-3,,act
2019-12-28T05:55:30Z,13.5,-2,,act
2019-12-28T05:56:00Z,13.5,-2,,act
2019-12-28T05:56:30Z,13.5,-2,,act
2019-12-28T05:57:00Z,13.5,-2,,act
2019-12-28T05:57:30Z,13.5,-2,,act
2019-12-28T05:58:00Z,13.5,-2,,act
2019-12-28T05:58:30Z,13.5,-1,,act
2019-12-28T05:59:00Z,13.6,-1,,act
2019-12-28T05:59:30Z,13.6,-1,,act
2019-12-28T06:15:04Z,13.66,-2,81,
2019-12-28T07:15:04Z,13.77,0,78,
2019-12-28T08:15:04Z,13.60,0,78,
2019-12-28T09:15:04Z,13.52,0,79,
2019-12-28T10:15:04Z,13.47,0,78,
2019-12-28T11:15:04Z,13.39,2,78,
2019-12-28T12:15:04Z,13.37,4,77,
2019-12-28T13:15:04Z,13.36,5,78,
2019-12-28T14:15:04Z,13.35,5,79,
2019-12-28T15:15:04Z,13.48,3,80,
2019-12-28T16:15:04Z,13.85,2,80,
2019-12-28T17:15:04Z,13.56,0,79,
2019-12-28T18:15:04Z,13.50,-1,81,
2019-12-28T19:15:04Z,13.46,-1,82,
2019-12-28T20:15:04Z,13.42,-1,81,
2019-12-28T21:15:04Z,13.39,-2,81,
2019-12-28T22:15:04Z,13.30,-3,81,
2019-12-28T23:15:04Z,13.32,-3,81,
2019-12-29T00:15:04Z,13.31,-4,81,
2019-12-29T01:15:04Z,13.30,-4,82,
2019-12-29T02:15:04Z,13.30,-4,82,
2019-12-29T03:15:04Z,13.29,-4,82,
2019-12-29T04:15:04Z,13.27,-4,80,
2019-12-29T05:15:04Z,13.28,-4,81,
2019-12-29T05:47:30Z,13.5,-4,,act
2019-12-29T05:48:00Z,13.5,-4,,act
2019-12-29T05:48:30Z,13.5,-4,,act
2019-12-29T05:49:00Z,13.5,-4,,act
2019-12-29T05:49:30Z,13.5,-4,,act
2019-12-29T05:50:00Z,13.5,-3,,act
2019-12-29T05:50:30Z,13.5,-3,,act
2019-12-29T05:51:00Z,13.5,-3,,act
2019-12-29T05:51:30Z,13.5,-3,,act
2019-12-29T05:52:00Z,13.6,-3,,act
2019-12-29T06:15:04Z,13.74,-4,81,
2019-12-29T07:15:04Z,13.75,-2,79,
2019-12-29T08:15:04Z,13.58,-3,80,
2019-12-29T09:15:04Z,13.41,-1,80,
2019-12-29T10:15:04Z,13.41,1,79,
2019-12-29T11:15:04Z,13.39,3,78,
2019-12-29T12:15:04Z,13.37,5,77,
2019-12-29T13:15:04Z,13.35,6,78,
2019-12-29T14:14:35Z,13.34,6,78,boot
2019-12-29T15:14:35Z,13.41,5,78,
2019-12-29T16:14:35Z,13.95,4,80,
2019-12-29T17:14:35Z,13.69,2,79,
2019-12-29T18:14:35Z,13.60,1,82,
2019-12-29T19:14:35Z,13.53,0,81,
2019-12-29T20:14:35Z,13.48,1,82,
2019-12-29T21:14:35Z,13.36,2,80,
2019-12-29T22:14:35Z,13.38,2,80,
2019-12-29T23:14:35Z,13.36,3,79,
2019-12-30T00:14:35Z,13.35,2,80,
2019-12-30T01:14:35Z,13.33,2,80,
2019-12-30T02:14:35Z,13.32,2,80,
2019-12-30T03:14:35Z,13.24,3,79,
2019-12-30T04:14:35Z,13.30,3,79,
2019-12-30T05:14:35Z,13.30,2,80,
2019-12-30T06:14:35Z,13.78,1,80,
2019-12-30T07:14:35Z,13.79,1,79,
2019-12-30T08:14:35Z,13.63,2,79,
2019-12-30T09:14:35Z,13.55,1,79,
2019-12-30T10:14:35Z,13.44,3,78,
2019-12-30T11:14:35Z,13.41,5,79,
2019-12-30T12:14:35Z,13.39,7,77,
2019-12-30T13:14:35Z,13.37,7,77,
2019-12-30T14:14:35Z,13.35,6,78,
2019-12-30T15:14:35Z,13.53,5,78,
2019-12-30T16:14:35Z,13.92,4,77,
2019-12-30T17:14:35Z,13.69,3,78,
2019-12-30T18:14:35Z,13.60,2,79,
2019-12-30T19:14:35Z,13.53,3,78,
2019-12-30T20:14:35Z,13.49,4,76,
2019-12-30T21:14:35Z,13.45,5,76,
2019-12-30T22:14:35Z,13.38,7,73,
2019-12-30T23:14:35Z,13.37,6,75,
2019-12-31T00:14:35Z,13.35,4,79,
2019-12-31T01:14:35Z,13.34,4,78,
2019-12-31T02:14:35Z,13.33,6,75,
2019-12-31T03:14:35Z,13.32,7,74,
2019-12-31T04:14:35Z,13.30,8,73,
2019-12-31T05:14:35Z,13.31,8,74,
2019-12-31T06:14:35Z,13.65,6,77,
2019-12-31T07:14:35Z,13.84,4,77,
2019-12-31T08:14:35Z,13.66,2,79,
2019-12-31T09:14:35Z,13.57,2,79,
2019-12-31T10:14:35Z,13.40,4,78,
2019-12-31T11:14:35Z,13.42,8,75,
2019-12-31T12:14:35Z,13.40,8,76,
2019-12-31T13:14:35Z,13.38,7,77,
2019-12-31T14:14:35Z,13.36,6,78,
2019-12-31T15:14:35Z,13.49,4,78,
2019-12-31T16:14:35Z,13.84,1,77,
2019-12-31T17:14:35Z,13.56,0,81,
2019-12-31T17:30:00Z,13.5,0,,act
2019-12-31T17:30:30Z,13.5,0,,act
2019-12-31T17:31:00Z,13.5,0,,act
2019-12-31T17:31:30Z,13.5,1,,act
2019-12-31T17:32:00Z,13.5,1,,act
2019-12-31T17:32:30Z,13.5,1,,act
2019-12-31T17:33:00Z,13.5,1,,act
2019-12-31T17:33:30Z,13.5,1,,act
2019-12-31T17:34:00Z,13.5,1,,act
2019-12-31T17:34:30Z,13.5,1,,act
2019-12-31T18:14:35Z,13.48,-1,81,
2019-12-31T19:14:35Z,13.45,1,80,
2019-12-31T20:14:35Z,13.42,3,77,
2019-12-31T21:14:35Z,13.40,4,76,
2019-12-31T22:14:35Z,13.38,4,76,
2019-12-31T23:14:35Z,13.33,4,76,
2020-01-01T00:14:35Z,13.32,2,76,
2020-01-01T01:14:35Z,13.32,2,79,
2020-01-01T02:14:35Z,13.31,2,77,
2020-01-01T03:14:35Z,13.30,2,78,
2020-01-01T04:14:35Z,13.30,2,78,
2020-01-01T05:14:35Z,13.29,2,76,
2020-01-01T06:14:35Z,13.57,2,77,
2020-01-01T07:14:35Z,13.85,3,76,
2020-01-01T08:14:35Z,13.65,2,77,
2020-01-01T09:14:35Z,13.56,2,77,
